TimeEDT,TemperatureF,Dew PointF,Humidity,Sea Level PressureIn,VisibilityMPH,Wind Direction,Wind SpeedMPH,Gust SpeedMPH,PrecipitationIn,Events,Conditions,WindDirDegrees,DateUTC
12:51 AM,55.0,39.9,57,30.01,10.0,NNW,11.5,-,N/A,,Partly Cloudy,330,2012-10-07 04:51:00
1:51 AM,54.0,37.9,55,30.03,10.0,North,9.2,-,N/A,,Partly Cloudy,350,2012-10-07 05:51:00
2:51 AM,52.0,36.0,54,30.03,10.0,NNW,6.9,-,N/A,,Partly Cloudy,330,2012-10-07 06:51:00
3:51 AM,53.1,36.0,52,30.02,10.0,North,11.5,-,N/A,,Partly Cloudy,350,2012-10-07 07:51:00
4:51 AM,52.0,36.0,54,30.04,10.0,North,10.4,-,N/A,,Scattered Clouds,350,2012-10-07 08:51:00
5:51 AM,50.0,34.0,54,30.07,10.0,NNW,8.1,-,N/A,,Partly Cloudy,330,2012-10-07 09:51:00
6:51 AM,50.0,34.0,54,30.08,10.0,North,5.8,-,N/A,,Mostly Cloudy,350,2012-10-07 10:51:00
7:51 AM,52.0,36.0,54,30.08,10.0,North,4.6,-,N/A,,Mostly Cloudy,10,2012-10-07 11:51:00
8:51 AM,53.1,37.0,55,30.09,10.0,NNE,6.9,-,N/A,,Mostly Cloudy,20,2012-10-07 12:51:00
9:51 AM,55.0,37.9,53,30.11,10.0,NNE,5.8,-,N/A,,Mostly Cloudy,20,2012-10-07 13:51:00
10:51 AM,55.9,37.9,51,30.11,10.0,North,5.8,-,0.00,Rain,Light Rain,360,2012-10-07 14:51:00
11:51 AM,55.0,39.0,55,30.12,10.0,North,3.5,-,0.00,Rain,Light Rain,10,2012-10-07 15:51:00
12:51 PM,53.1,43.0,69,30.11,8.0,East,3.5,-,0.05,Rain,Light Rain,80,2012-10-07 16:51:00
1:51 PM,53.1,43.0,69,30.08,10.0,Calm,Calm,-,0.02,,Overcast,0,2012-10-07 17:51:00
2:51 PM,53.1,46.9,80,30.07,10.0,East,4.6,-,0.00,,Overcast,80,2012-10-07 18:51:00
3:51 PM,54.0,44.1,69,30.05,10.0,East,3.5,-,N/A,,Overcast,80,2012-10-07 19:51:00
4:51 PM,54.0,45.0,72,30.04,10.0,ENE,3.5,-,N/A,,Overcast,60,2012-10-07 20:51:00
5:51 PM,53.1,46.0,77,30.03,10.0,ENE,5.8,-,0.00,,Overcast,70,2012-10-07 21:51:00
6:51 PM,53.1,46.9,80,30.03,10.0,ENE,3.5,-,N/A,,Overcast,70,2012-10-07 22:51:00
7:51 PM,52.0,46.0,80,30.07,9.0,WNW,16.1,-,0.00,,Light Drizzle,300,2012-10-07 23:51:00
8:51 PM,50.0,44.1,80,30.09,10.0,NW,11.5,-,0.03,Rain,Light Rain,310,2012-10-08 00:51:00
9:51 PM,50.0,45.0,83,30.12,10.0,NW,10.4,-,0.03,Rain,Light Rain,310,2012-10-08 01:51:00
10:51 PM,50.0,46.0,86,30.12,9.0,WNW,8.1,-,0.03,Rain,Light Rain,290,2012-10-08 02:51:00
11:51 PM,50.0,44.1,80,30.13,10.0,NW,8.1,-,0.00,,Overcast,320,2012-10-08 03:51:00